SCP
0 0 0 0 0 0 0 -0 -0 -0 0 0 0 0 0 0 0 0 0 0 0 0 0 0 0 1 0 0 0 0 0 0 0 0 0 1 1 1 1 1 1 0 0 0 0 0 0 0 0
0 0 0 0 0 0 0 -0 -0 0 0 0 0 0 0 0 0 0 0 0 0 0 0 0 0 0 0 0 0 0 0 0 0 0 0 0 0 0 0 0 0 0 0 0 0 0 0 0 0
0 0 0 0 0 0 0 -0 0 0 0 0 0 0 0 0 0 0 0 0 0 0 0 0 0 0 0 0 0 0 0 0 0 0 0 0 0 0 0 0 0 0 0 0 0 0 0 0 0
0 0 0 0 0 0 0 -0 0 0 0 0 0 0 0 0 0 0 0 0 0 0 0 0 0 0 0 0 0 0 0 0 0 0 0 0 0 0 0 0 0 0 0 0 0 0 0 0 0
0 0 0 0 0 0 0 -0 0 0 0 0 0 0 0 0 0 0 0 0 0 0 0 0 0 0 0 0 0 0 0 0 0 0 0 0 0 0 0 0 0 0 0 0 0 0 0 0 0
0 0 0 0 0 0 0 0 0 0 0 0 0 0 0 0 0 0 0 0 0 0 0 0 0 0 0 0 0 0 0 0 0 0 0 0 0 0 0 0 0 0 0 0 0 0 0 0 0
0 0 0 0 0 0 0 0 0 0 0 0 0 0 0 0 0 0 0 0 0 0 0 0 0 0 0 0 0 0 0 0 0 0 0 0 0 0 0 0 0 0 0 0 0 0 0 0 0
0 0 0 0 0 0 0 0 0 0 0 0 0 0 0 0 0 0 0 0 0 0 0 0 0 0 0 0 0 0 0 0 0 0 0 0 0 0 0 0 0 0 0 0 0 0 0 0 0
0 0 0 0 0 0 0 0 0 0 0 0 0 0 0 0 0 0 0 0 0 0 0 0 0 0 0 0 0 0 0 0 0 0 0 0 0 0 0 0 0 0 0 0 0 0 0 0 0
0 0 0 0 0 0 0 0 0 0 0 0 0 0 0 0 0 0 0 0 0 0 0 0 0 0 0 0 0 0 0 0 0 0 0 0 0 0 -0 0 0 0 0 0 0 0 0 0 0
0 0 0 0 0 0 0 0 0 0 0 0 0 0 0 0 0 0 0 0 0 0 0 0 0 0 0 0 0 0 0 0 0 0 0 0 0 -0 -0 -0 -0 -0 -0 -0 0 0 0 0 0
0 0 0 0 0 0 0 0 0 0 0 0 0 0 1 1 0 0 0 0 0 0 0 0 0 0 0 0 0 0 0 0 0 0 0 0 0 -0 -0 -0 -0 -0 -0 -0 0 0 0 0 0
0 0 0 0 0 0 0 0 0 0 0 0 0 1 1 1 1 0 0 0 0 0 0 0 0 1 1 1 1 0 0 0 0 0 0 0 0 0 -0 -0 -0 -0 -0 0 0 0 0 0 0
0 0 0 0 0 0 0 0 0 0 0 0 0 1 1 1 1 1 0 0 0 0 0 0 0 1 1 1 1 1 0 0 0 0 0 0 0 0 0 0 -0 -0 0 0 0 0 0 0 0
0 0 0 0 0 0 0 0 0 0 0 0 0 1 1 1 1 1 1 1 1 1 0 0 0 1 1 1 1 1 0 0 0 0 0 0 0 0 0 0 0 0 0 0 0 0 0 0 0
0 0 0 0 0 0 0 0 0 0 0 0 0 1 1 1 1 1 1 1 1 1 1 1 1 1 1 1 1 1 1 0 0 0 0 0 0 0 0 0 0 0 0 0 0 0 0 0 0
0 0 0 0 0 0 0 0 0 0 0 0 0 0 1 1 1 1 1 1 1 1 1 1 1 1 1 1 1 1 1 0 0 0 0 0 0 0 0 0 0 0 0 0 0 0 0 0 0
0 0 0 0 0 0 0 0 0 0 0 0 0 0 1 1 1 1 1 1 1 1 2 2 2 2 2 2 1 1 1 1 0 0 0 0 0 0 0 0 0 0 0 0 0 0 0 0 0
0 0 0 0 0 0 0 0 0 0 0 0 0 0 0 0 1 1 1 1 1 1 2 2 2 2 2 2 2 1 1 1 0 0 0 0 0 0 0 0 0 0 0 0 0 0 0 0 0
0 0 0 0 0 0 0 0 -0 0 0 0 0 0 0 0 0 0 0 1 1 1 2 3 3 3 3 3 2 1 1 0 0 0 0 0 0 0 0 0 0 0 0 0 0 0 0 0 0
0 0 0 0 0 0 0 0 0 0 0 0 0 0 0 0 0 0 0 0 1 1 2 3 3 3 3 2 2 1 1 0 0 0 0 0 0 0 0 0 0 0 0 0 0 0 0 0 0
0 0 0 0 0 0 0 0 0 0 0 0 0 0 0 0 0 0 0 0 1 1 1 2 2 2 2 2 1 1 1 0 0 0 0 0 0 0 0 0 0 0 0 0 0 0 0 0 0
0 0 0 0 0 0 0 0 0 0 0 0 0 0 0 0 0 0 0 1 1 1 1 1 2 2 1 1 1 1 0 0 0 0 0 0 0 0 0 0 0 0 0 0 0 0 0 0 0
0 0 0 0 0 0 0 0 0 0 0 0 0 0 1 1 1 1 1 1 1 1 1 1 1 1 1 1 1 0 0 0 0 0 0 0 0 0 0 0 0 0 0 0 0 0 0 0 0
0 0 0 0 0 0 0 0 0 0 0 0 1 1 1 1 1 1 1 1 1 1 1 1 1 1 0 0 0 0 0 0 0 0 0 0 0 0 0 0 0 0 0 0 0 0 0 0 0
0 0 0 0 0 0 0 0 0 0 0 1 1 1 1 1 1 1 1 1 1 1 1 0 0 0 0 0 0 0 0 0 0 0 0 0 0 0 0 0 0 0 0 0 0 0 0 0 0
0 0 0 0 0 0 0 0 0 0 0 1 1 1 1 1 1 1 1 0 0 0 0 0 0 0 0 0 0 0 0 0 0 0 0 0 0 0 0 0 0 0 0 0 0 0 0 0 0
0 0 0 0 0 0 0 0 0 0 0 1 1 1 1 1 0 0 0 0 0 0 0 0 0 0 0 0 0 0 0 0 0 0 0 0 0 0 0 0 0 0 0 0 0 0 0 0 0
0 0 0 0 0 0 0 0 0 0 0 1 1 1 1 0 0 0 0 0 0 0 0 0 0 0 0 0 0 0 0 0 0 0 0 0 0 0 0 0 0 0 0 0 0 0 0 0 0
0 0 0 0 0 0 0 0 0 0 0 1 1 1 0 0 0 0 0 0 0 0 0 0 0 0 0 0 0 0 0 0 0 0 0 0 0 0 0 0 0 0 0 0 0 0 0 0 0
Wind_Speed
2 4 3 3 6 5 4 5 3 3 2 1 3 4 4 4 4 3 1 8 12 12 9 12 14 15 16 15 15 15 14 14 13 13 13 12 12 11 11 11 10 10 10 10 10 10 10 10 9
3 4 3 5 5 2 6 5 4 3 3 2 3 3 2 1 2 5 5 7 12 12 8 10 15 15 16 16 15 15 15 15 14 13 13 13 12 11 11 11 10 9 9 9 9 8 8 8 8
3 3 5 5 4 5 6 4 3 3 1 2 3 2 1 2 5 6 6 11 11 10 8 11 17 16 16 16 15 15 15 15 14 14 13 12 12 11 10 11 10 9 8 8 7 7 7 7 6
4 5 6 4 5 7 6 6 3 3 1 2 4 2 1 1 6 6 12 13 13 10 8 11 17 16 16 16 16 16 15 15 14 14 13 12 11 10 10 10 9 9 8 7 6 6 6 5 5
5 5 4 1 6 7 7 7 5 4 2 2 5 3 1 3 7 12 14 14 13 10 7 10 16 16 17 17 16 15 15 14 13 13 12 11 10 9 9 9 9 8 7 6 5 5 4 4 4
6 5 4 4 6 6 6 6 4 5 4 3 6 4 1 3 10 12 12 11 11 11 8 9 16 18 17 16 16 14 14 13 12 12 11 10 9 9 8 8 8 7 6 5 4 3 3 3 3
6 5 5 5 4 5 5 3 4 5 5 5 7 5 2 4 8 11 10 9 8 9 8 7 8 12 16 16 15 14 13 12 11 11 10 10 9 9 9 7 7 6 5 4 3 2 1 2 2
5 6 4 4 4 5 3 1 2 5 5 4 7 8 6 7 9 10 9 8 7 8 8 7 7 7 7 9 15 15 14 13 13 12 12 11 11 10 9 7 6 6 5 4 2 1 1 2 3
4 5 4 6 6 4 2 2 3 2 4 3 4 6 6 13 13 11 8 6 8 10 8 7 7 7 7 7 11 13 14 14 13 11 12 9 4 4 4 6 6 6 5 4 2 1 2 3 4
4 4 8 6 5 3 2 2 3 1 3 2 2 3 11 17 16 15 14 14 14 14 13 9 9 9 8 8 6 5 6 6 6 4 5 4 3 2 3 4 7 6 5 3 2 2 3 3 2
6 7 6 6 5 3 3 4 2 5 4 8 8 11 17 18 16 16 16 16 16 14 13 12 10 9 9 6 5 4 3 4 4 5 4 3 3 2 1 0 2 2 2 1 2 3 3 2 2
5 6 5 4 2 2 3 3 3 6 9 8 10 17 20 21 21 20 19 17 13 12 15 13 12 11 10 7 6 5 4 4 4 5 5 4 2 2 1 1 1 0 1 1 1 1 2 3 2
5 5 5 6 6 5 5 6 5 8 8 4 9 16 21 22 21 18 15 14 13 15 16 14 14 13 11 8 7 7 6 6 6 5 5 5 4 3 3 2 1 1 1 1 1 2 3 3 4
5 5 5 5 6 4 4 5 4 8 4 6 12 17 20 20 20 16 15 16 17 17 16 14 15 14 12 10 8 7 7 6 5 5 6 6 4 4 3 2 2 1 2 2 2 3 3 3 4
2 3 5 4 3 3 2 4 5 5 3 8 13 16 18 17 16 18 20 19 18 16 15 15 16 14 13 12 10 7 6 5 5 4 5 6 5 5 4 3 2 2 2 3 3 4 4 4 4
1 1 2 5 2 2 3 5 7 3 4 9 11 13 15 16 17 18 16 15 13 12 13 14 14 14 13 11 8 5 5 5 4 4 4 5 5 5 4 3 3 3 3 4 4 3 4 4 3
4 0 2 4 2 2 1 5 8 3 6 9 11 13 15 15 15 16 15 14 13 13 13 13 13 13 12 9 6 5 3 3 2 2 3 4 5 5 4 4 3 4 4 4 4 3 3 3 2
3 2 1 3 3 4 3 6 10 5 6 9 10 11 13 15 20 17 14 13 12 12 12 12 11 11 10 6 4 3 3 2 1 1 2 3 4 5 5 4 5 5 5 4 4 4 3 2 1
3 2 3 5 4 2 5 7 10 7 4 8 8 10 13 18 18 12 11 11 10 11 12 13 13 11 9 7 6 5 3 2 2 1 2 3 4 6 5 5 5 5 5 5 5 3 4 3 1
3 3 4 7 3 1 4 8 9 6 6 7 9 11 13 13 10 9 10 11 13 13 12 12 13 11 10 7 5 4 4 3 2 2 3 3 4 5 5 6 5 5 5 5 4 3 3 3 3
4 5 5 6 6 4 3 8 8 6 4 5 6 7 8 9 10 8 8 9 8 9 10 11 11 9 9 9 7 6 4 3 3 2 2 3 3 5 5 6 6 5 5 5 4 4 4 3 2
5 7 6 3 1 4 2 4 10 6 7 5 6 5 6 5 5 5 5 5 6 7 6 7 8 9 9 10 9 9 5 3 1 1 2 4 5 6 6 5 6 5 5 5 4 4 3 4 2
7 4 4 3 4 2 2 2 10 6 6 7 7 7 6 4 2 0 1 2 3 4 7 9 11 10 10 9 9 8 6 4 4 4 5 4 4 5 6 6 5 5 5 5 5 5 4 3 3
4 5 5 5 4 2 5 5 7 4 5 8 7 8 7 6 6 7 8 9 9 10 11 11 12 11 10 9 8 8 8 7 8 7 6 4 4 4 5 6 5 5 5 5 4 4 5 3 3
5 5 4 3 3 6 3 3 6 4 5 5 6 7 9 10 10 11 11 11 11 12 11 11 12 11 9 9 7 7 8 8 8 8 6 6 4 3 4 5 4 4 4 4 4 4 3 3 2
6 11 8 6 6 5 1 4 3 3 6 7 8 9 11 12 12 12 12 11 11 11 11 11 11 10 9 8 6 6 7 5 6 7 6 6 4 4 4 5 5 4 4 4 3 3 3 2 2
7 7 8 7 3 1 3 2 2 4 8 9 9 11 12 12 13 13 12 12 12 12 11 11 11 10 9 9 8 8 8 7 7 7 6 5 5 5 5 5 5 5 5 5 4 4 4 3 3
5 8 6 7 7 4 3 2 2 3 5 6 8 9 10 11 12 13 12 12 12 12 11 12 11 11 10 9 8 8 8 8 8 7 7 7 6 6 6 6 6 6 6 6 6 5 4 4 3
4 4 5 4 5 8 4 4 1 1 1 4 7 8 10 11 11 11 11 11 11 11 11 11 10 11 10 9 9 9 8 8 8 8 8 7 7 7 7 7 7 7 7 6 6 5 4 4 4
4 5 7 5 4 4 5 3 3 1 3 6 8 9 9 10 10 10 10 10 10 11 10 10 10 10 9 9 10 9 9 9 9 9 8 8 8 7 7 7 7 7 6 5 5 5 5 5 5
Wind_Direction
161 127 110 69 48 38 288 265 252 292 272 230 144 136 149 156 179 206 98 129 131 137 145 150 149 143 139 135 131 128 126 123 120 119 118 117 117 116 117 117 116 115 115 111 106 102 99 97 96
168 134 72 61 78 358 280 258 253 252 216 139 97 92 93 147 93 117 128 135 135 137 140 149 149 143 139 136 134 133 133 132 130 130 129 128 127 126 126 128 126 123 121 119 115 109 104 101 99
149 90 89 79 128 194 249 254 254 306 197 121 100 74 122 176 148 152 150 139 133 135 140 155 150 145 142 141 140 140 140 140 140 140 140 138 138 137 138 138 137 134 130 127 121 114 108 104 100
101 59 59 93 220 226 232 261 282 309 316 96 110 96 58 129 155 151 140 141 137 140 146 156 152 149 148 147 147 147 146 147 148 148 148 148 148 147 149 148 146 144 141 137 130 121 112 103 98
63 83 84 193 243 250 245 258 243 245 225 141 122 120 3 36 115 135 144 148 145 146 150 156 154 154 154 153 153 153 153 153 153 154 155 155 156 157 158 158 157 156 155 152 143 129 112 97 90
63 78 120 224 252 263 259 244 224 221 217 152 130 127 259 127 137 150 151 149 148 149 150 156 160 160 160 160 159 159 158 158 158 159 160 161 163 165 166 167 168 170 172 170 161 137 107 87 75
112 119 175 203 239 266 256 236 205 201 197 181 142 134 233 178 167 153 146 140 142 149 152 158 164 165 166 165 164 164 163 163 164 164 166 168 171 174 177 178 180 182 185 189 183 152 100 61 37
130 121 172 209 215 249 262 301 244 176 187 154 135 156 207 193 158 141 131 133 145 157 164 165 167 165 164 168 172 171 171 171 173 175 177 179 182 185 189 188 194 198 204 210 213 226 350 358 355
99 94 197 214 202 232 277 322 298 194 134 148 169 184 192 148 147 140 136 143 165 176 180 176 173 170 166 169 179 177 179 181 182 184 186 184 183 189 196 200 208 213 218 225 238 276 326 346 359
114 164 219 222 210 219 284 266 251 155 139 160 145 126 138 149 161 164 170 176 183 187 189 186 182 178 173 179 176 173 178 180 180 178 184 172 167 190 201 219 222 227 230 242 267 307 347 13 16
169 194 225 242 239 249 278 271 231 163 196 202 188 165 154 164 175 181 184 187 191 189 189 190 188 184 182 182 172 173 172 172 178 181 181 166 163 178 197 178 260 270 274 12 15 19 26 23 16
184 232 229 251 237 258 249 257 247 203 214 208 184 164 166 177 185 190 190 192 190 189 195 191 189 188 189 185 180 178 179 180 183 186 180 168 169 181 184 186 209 143 72 71 50 36 28 34 32
213 250 241 247 271 249 244 239 235 242 233 193 158 163 179 188 193 197 195 192 189 195 197 194 191 192 190 188 187 187 189 189 187 184 183 177 180 190 188 189 183 167 140 135 92 62 53 51 45
225 236 272 277 270 250 238 262 221 257 212 170 168 177 189 195 196 195 196 197 198 199 198 195 195 196 191 193 192 190 191 188 185 188 189 185 184 185 183 187 183 166 151 137 114 94 83 71 65
269 275 308 280 254 244 201 300 241 256 165 181 187 189 195 203 200 203 203 202 201 199 196 196 198 196 195 196 195 191 188 184 189 193 189 186 185 185 179 174 167 150 127 118 104 94 85 79 70
5 70 300 291 289 283 167 262 271 263 193 203 201 198 202 209 210 212 210 208 202 197 196 199 201 198 198 196 189 185 182 183 187 187 186 185 180 172 163 158 156 134 118 113 107 97 84 69 66
23 133 236 298 357 34 99 261 280 278 208 220 212 208 209 214 220 219 212 207 202 200 197 196 200 196 197 193 178 171 165 173 172 175 181 178 169 162 153 148 137 120 105 101 107 84 94 83 70
229 220 249 276 316 10 339 277 289 291 220 229 227 218 216 217 223 220 213 207 200 198 196 196 196 193 184 172 155 141 117 114 113 153 162 154 148 146 141 131 124 115 105 94 92 94 77 83 87
192 205 269 271 280 309 292 288 289 291 267 254 245 232 225 226 228 219 212 207 200 197 194 194 194 190 173 169 168 156 141 108 93 86 102 127 136 138 135 130 123 118 117 125 127 111 90 57 28
199 248 279 293 324 271 294 291 284 274 250 245 246 243 237 238 233 219 210 205 202 199 195 193 193 185 172 166 146 115 109 104 98 78 83 89 118 125 129 130 126 119 115 113 114 118 109 65 26
198 205 234 262 334 347 300 307 304 297 301 294 278 263 254 237 231 226 216 214 207 199 195 193 189 167 149 135 114 105 94 80 75 70 71 77 100 109 116 121 121 124 122 118 111 113 122 121 53
230 221 212 237 1 300 10 302 294 302 320 318 316 311 288 269 247 228 216 206 199 197 179 164 141 130 129 126 129 130 125 115 99 107 102 104 99 103 108 110 112 112 108 112 110 99 108 118 115
211 207 194 209 188 261 280 193 281 326 324 327 344 350 336 323 307 280 147 146 124 111 107 107 109 111 114 117 123 119 111 108 120 113 117 108 94 96 106 105 110 108 104 107 106 104 98 100 121
176 75 53 51 90 233 233 171 272 305 311 322 348 3 5 18 49 65 73 80 78 81 90 98 101 99 99 102 105 113 121 136 140 140 140 122 106 98 100 104 101 102 104 107 108 108 107 108 115
128 103 27 2 36 241 241 172 247 309 345 352 9 32 42 52 61 66 70 75 79 84 90 96 102 102 100 99 102 115 133 151 151 146 141 132 121 109 110 109 105 103 108 110 109 107 107 113 121
177 149 163 190 206 254 270 208 253 22 37 48 59 61 61 61 63 66 68 72 75 78 82 90 95 98 96 96 95 101 117 128 128 127 131 129 123 119 117 113 108 102 98 97 93 84 77 76 74
156 188 175 141 157 191 270 268 322 39 46 52 62 64 62 62 63 63 63 63 65 67 67 74 83 83 82 84 87 87 93 102 109 110 111 110 111 115 107 101 93 86 82 80 78 68 59 61 50
151 148 110 132 151 207 263 250 268 351 22 51 64 67 65 64 62 60 59 60 60 62 64 66 71 76 74 75 78 83 82 88 94 97 99 98 97 96 95 87 82 77 73 74 74 69 61 63 43
109 115 119 129 158 161 208 249 307 270 22 87 77 69 66 65 64 63 62 62 64 65 66 70 73 77 77 78 79 80 80 82 86 86 86 88 87 89 90 89 86 83 78 76 78 72 57 47 27
133 153 143 150 203 178 167 217 352 66 86 94 87 77 69 67 65 63 63 63 62 63 65 67 70 74 78 81 82 80 80 81 81 80 80 83 82 82 89 94 95 93 86 79 76 63 48 32 9